Year,Month,Day,Hour,Minute,Value (Times are PST for temperature in C)
2015,01,19,00,00,6.80
2015,01,19,00,01,6.80
2015,01,19,00,02,6.80
2015,01,19,00,03,6.80
2015,01,19,00,04,6.80
2015,01,19,00,05,6.80
2015,01,19,00,06,6.80
2015,01,19,00,07,6.80
2015,01,19,00,08,6.80
2015,01,19,00,09,6.80
2015,01,19,00,10,6.70
2015,01,19,00,11,6.70
2015,01,19,00,12,6.70
2015,01,19,00,13,6.70
2015,01,19,00,14,6.70
2015,01,19,00,15,6.60
2015,01,19,00,16,6.60
2015,01,19,00,17,6.60
2015,01,19,00,18,6.60
2015,01,19,00,19,6.60
2015,01,19,00,20,6.60
2015,01,19,00,21,6.50
2015,01,19,00,22,6.50
2015,01,19,00,23,6.50
2015,01,19,00,24,6.50
2015,01,19,00,25,6.50
2015,01,19,00,26,6.40
2015,01,19,00,27,6.40
2015,01,19,00,28,6.40
2015,01,19,00,29,6.50
2015,01,19,00,30,6.50
2015,01,19,00,31,6.50
2015,01,19,00,32,6.50
2015,01,19,00,33,6.50
2015,01,19,00,34,6.60
2015,01,19,00,35,6.60
2015,01,19,00,36,6.60
2015,01,19,00,37,6.60
2015,01,19,00,38,6.70
2015,01,19,00,39,6.70
2015,01,19,00,40,6.70
2015,01,19,00,41,6.70
2015,01,19,00,42,6.70
2015,01,19,00,43,6.70
2015,01,19,00,44,6.60
2015,01,19,00,45,6.60
2015,01,19,00,46,6.60
2015,01,19,00,47,6.60
2015,01,19,00,48,6.60
2015,01,19,00,49,6.60
2015,01,19,00,50,6.60
2015,01,19,00,51,6.60
2015,01,19,00,52,6.60
2015,01,19,00,53,6.60
2015,01,19,00,54,6.60
2015,01,19,00,55,6.50
2015,01,19,00,56,6.50
2015,01,19,00,57,6.50
2015,01,19,00,58,6.50
2015,01,19,00,59,6.50
2015,01,19,01,00,6.40
2015,01,19,01,01,6.50
2015,01,19,01,02,6.40
2015,01,19,01,03,6.40
2015,01,19,01,04,6.40
2015,01,19,01,05,6.40
2015,01,19,01,06,6.40
2015,01,19,01,07,6.40
2015,01,19,01,08,6.40
2015,01,19,01,09,6.40
2015,01,19,01,10,6.30
2015,01,19,01,11,6.30
2015,01,19,01,12,6.30
2015,01,19,01,13,6.30
2015,01,19,01,14,6.30
2015,01,19,01,15,6.30
2015,01,19,01,16,6.30
2015,01,19,01,17,6.30
2015,01,19,01,18,6.30
2015,01,19,01,19,6.20
2015,01,19,01,20,6.20
2015,01,19,01,21,6.20
2015,01,19,01,22,6.20
2015,01,19,01,23,6.20
2015,01,19,01,24,6.20
2015,01,19,01,25,6.20
2015,01,19,01,26,6.10
2015,01,19,01,27,6.10
2015,01,19,01,28,6.10
2015,01,19,01,29,6.10
2015,01,19,01,30,6.10
2015,01,19,01,31,6.00
2015,01,19,01,32,6.00
2015,01,19,01,33,6.00
2015,01,19,01,34,6.00
2015,01,19,01,35,6.00
2015,01,19,01,36,6.00
2015,01,19,01,37,6.00
2015,01,19,01,38,5.90
2015,01,19,01,39,5.90
2015,01,19,01,40,5.90
2015,01,19,01,41,5.90
2015,01,19,01,42,5.90
2015,01,19,01,43,5.90
2015,01,19,01,44,5.90
2015,01,19,01,45,5.90
2015,01,19,01,46,5.90
2015,01,19,01,47,6.00
2015,01,19,01,48,6.00
2015,01,19,01,49,6.00
2015,01,19,01,50,6.00
2015,01,19,01,51,6.00
2015,01,19,01,52,6.00
2015,01,19,01,53,6.10
2015,01,19,01,54,6.10
2015,01,19,01,55,6.10
2015,01,19,01,56,6.20
2015,01,19,01,57,6.20
2015,01,19,01,58,6.20
2015,01,19,01,59,6.20
2015,01,19,02,00,6.30
2015,01,19,02,01,6.30
2015,01,19,02,02,6.30
2015,01,19,02,03,6.30
2015,01,19,02,04,6.30
2015,01,19,02,05,6.30
2015,01,19,02,06,6.40
2015,01,19,02,07,6.40
2015,01,19,02,08,6.40
2015,01,19,02,09,6.40
2015,01,19,02,10,6.40
2015,01,19,02,11,6.40
2015,01,19,02,12,6.40
2015,01,19,02,13,6.40
2015,01,19,02,14,6.40
2015,01,19,02,15,6.30
2015,01,19,02,16,6.30
2015,01,19,02,17,6.30
2015,01,19,02,18,6.20
2015,01,19,02,19,6.20
2015,01,19,02,20,6.10
2015,01,19,02,21,6.10
2015,01,19,02,22,6.00
2015,01,19,02,23,5.90
2015,01,19,02,24,5.90
2015,01,19,02,25,5.90
2015,01,19,02,26,5.80
2015,01,19,02,27,5.80
2015,01,19,02,28,5.80
2015,01,19,02,29,5.80
2015,01,19,02,30,5.80
2015,01,19,02,31,5.80
2015,01,19,02,32,5.70
2015,01,19,02,33,5.70
2015,01,19,02,34,5.70
2015,01,19,02,35,5.70
2015,01,19,02,36,5.70
2015,01,19,02,37,5.70
2015,01,19,02,38,5.70
2015,01,19,02,39,5.70
2015,01,19,02,40,5.70
2015,01,19,02,41,5.70
2015,01,19,02,42,5.70
2015,01,19,02,43,5.70
2015,01,19,02,44,5.70
2015,01,19,02,45,5.70
2015,01,19,02,46,5.60
2015,01,19,02,47,5.60
2015,01,19,02,48,5.50
2015,01,19,02,49,5.40
2015,01,19,02,50,5.40
2015,01,19,02,51,5.40
2015,01,19,02,52,5.30
2015,01,19,02,53,5.30
2015,01,19,02,54,5.20
2015,01,19,02,55,5.20
2015,01,19,02,56,5.20
2015,01,19,02,57,5.20
2015,01,19,02,58,5.20
2015,01,19,02,59,5.20
2015,01,19,03,00,5.20
2015,01,19,03,01,5.30
2015,01,19,03,02,5.30
2015,01,19,03,03,5.40
2015,01,19,03,04,5.40
2015,01,19,03,05,5.40
2015,01,19,03,06,5.50
2015,01,19,03,07,5.50
2015,01,19,03,08,5.60
2015,01,19,03,09,5.60
2015,01,19,03,10,5.60
2015,01,19,03,11,5.60
2015,01,19,03,12,5.70
2015,01,19,03,13,5.70
2015,01,19,03,14,5.60
2015,01,19,03,15,5.50
2015,01,19,03,16,5.50
2015,01,19,03,17,5.40
2015,01,19,03,18,5.30
2015,01,19,03,19,5.30
2015,01,19,03,20,5.30
2015,01,19,03,21,5.30
2015,01,19,03,22,5.20
2015,01,19,03,23,5.20
2015,01,19,03,24,5.20
2015,01,19,03,25,5.10
2015,01,19,03,26,5.10
2015,01,19,03,27,5.00
2015,01,19,03,28,5.00
2015,01,19,03,29,4.90
2015,01,19,03,30,4.90
2015,01,19,03,31,4.90
2015,01,19,03,32,4.80
2015,01,19,03,33,4.80
2015,01,19,03,34,4.80
2015,01,19,03,35,4.70
2015,01,19,03,36,4.70
2015,01,19,03,37,4.60
2015,01,19,03,38,4.60
2015,01,19,03,39,4.50
2015,01,19,03,40,4.40
2015,01,19,03,41,4.40
2015,01,19,03,42,4.30
2015,01,19,03,43,4.30
2015,01,19,03,44,4.30
2015,01,19,03,45,4.30
2015,01,19,03,46,4.30
2015,01,19,03,47,4.40
2015,01,19,03,48,4.40
2015,01,19,03,49,4.40
2015,01,19,03,50,4.40
2015,01,19,03,51,4.40
2015,01,19,03,52,4.40
2015,01,19,03,53,4.40
2015,01,19,03,54,4.40
2015,01,19,03,55,4.40
2015,01,19,03,56,4.50
2015,01,19,03,57,4.50
2015,01,19,03,58,4.40
2015,01,19,03,59,4.40
2015,01,19,04,00,4.30
2015,01,19,04,01,4.20
2015,01,19,04,02,4.10
2015,01,19,04,03,4.00
2015,01,19,04,04,4.00
2015,01,19,04,05,3.90
2015,01,19,04,06,3.80
2015,01,19,04,07,3.80
2015,01,19,04,08,3.80
2015,01,19,04,09,3.70
2015,01,19,04,10,3.70
2015,01,19,04,11,3.70
2015,01,19,04,12,3.60
2015,01,19,04,13,3.60
2015,01,19,04,14,3.50
2015,01,19,04,15,3.50
2015,01,19,04,16,3.50
2015,01,19,04,17,3.40
2015,01,19,04,18,3.40
2015,01,19,04,19,3.40
2015,01,19,04,20,3.30
2015,01,19,04,21,3.30
2015,01,19,04,22,3.30
2015,01,19,04,23,3.40
2015,01,19,04,24,3.40
2015,01,19,04,25,3.30
2015,01,19,04,26,3.30
2015,01,19,04,27,3.30
2015,01,19,04,28,3.30
2015,01,19,04,29,3.40
2015,01,19,04,30,3.40
2015,01,19,04,31,3.40
2015,01,19,04,32,3.30
2015,01,19,04,33,3.30
2015,01,19,04,34,3.30
2015,01,19,04,35,3.30
2015,01,19,04,36,3.20
2015,01,19,04,37,3.20
2015,01,19,04,38,3.20
2015,01,19,04,39,3.20
2015,01,19,04,40,3.10
2015,01,19,04,41,3.10
2015,01,19,04,42,3.00
2015,01,19,04,43,3.00
2015,01,19,04,44,3.00
2015,01,19,04,45,2.90
2015,01,19,04,46,2.90
2015,01,19,04,47,2.80
2015,01,19,04,48,2.80
2015,01,19,04,49,2.80
2015,01,19,04,50,2.70
2015,01,19,04,51,2.70
2015,01,19,04,52,2.70
2015,01,19,04,53,2.60
2015,01,19,04,54,2.60
2015,01,19,04,55,2.60
2015,01,19,04,56,2.60
2015,01,19,04,57,2.60
2015,01,19,04,58,2.60
2015,01,19,04,59,2.50
2015,01,19,05,00,2.50
2015,01,19,05,01,2.50
2015,01,19,05,02,2.40
2015,01,19,05,03,2.40
2015,01,19,05,04,2.40
2015,01,19,05,05,2.40
2015,01,19,05,06,2.40
2015,01,19,05,07,2.40
2015,01,19,05,08,2.40
2015,01,19,05,09,2.40
2015,01,19,05,10,2.40
2015,01,19,05,11,2.40
2015,01,19,05,12,2.40
2015,01,19,05,13,2.50
2015,01,19,05,14,2.60
2015,01,19,05,15,2.60
2015,01,19,05,16,2.60
2015,01,19,05,17,2.60
2015,01,19,05,18,2.50
2015,01,19,05,19,2.50
2015,01,19,05,20,2.50
2015,01,19,05,21,2.40
2015,01,19,05,22,2.40
2015,01,19,05,23,2.40
2015,01,19,05,24,2.30
2015,01,19,05,25,2.30
2015,01,19,05,26,2.30
2015,01,19,05,27,2.30
2015,01,19,05,28,2.30
2015,01,19,05,29,2.20
2015,01,19,05,30,2.20
2015,01,19,05,31,2.20
2015,01,19,05,32,2.20
2015,01,19,05,33,2.20
2015,01,19,05,34,2.10
2015,01,19,05,35,2.10
2015,01,19,05,36,2.00
2015,01,19,05,37,2.00
2015,01,19,05,38,2.00
2015,01,19,05,39,1.90
2015,01,19,05,40,1.90
2015,01,19,05,41,1.90
2015,01,19,05,42,1.90
2015,01,19,05,43,1.90
2015,01,19,05,44,1.90
2015,01,19,05,45,1.90
2015,01,19,05,46,1.90
2015,01,19,05,47,2.00
2015,01,19,05,48,2.00
2015,01,19,05,49,1.90
2015,01,19,05,50,2.00
2015,01,19,05,51,1.90
2015,01,19,05,52,1.90
2015,01,19,05,53,1.90
2015,01,19,05,54,1.90
2015,01,19,05,55,1.90
2015,01,19,05,56,1.90
2015,01,19,05,57,1.80
2015,01,19,05,58,1.80
2015,01,19,05,59,1.80
2015,01,19,06,00,1.80
2015,01,19,06,01,1.80
2015,01,19,06,02,1.80
2015,01,19,06,03,1.80
2015,01,19,06,04,1.80
2015,01,19,06,05,1.80
2015,01,19,06,06,1.80
2015,01,19,06,07,1.70
2015,01,19,06,08,1.70
2015,01,19,06,09,1.70
2015,01,19,06,10,1.70
2015,01,19,06,11,1.70
2015,01,19,06,12,1.60
2015,01,19,06,13,1.60
2015,01,19,06,14,1.60
2015,01,19,06,15,1.60
2015,01,19,06,16,1.60
2015,01,19,06,17,1.60
2015,01,19,06,18,1.60
2015,01,19,06,19,1.60
2015,01,19,06,20,1.60
2015,01,19,06,21,1.60
2015,01,19,06,22,1.60
2015,01,19,06,23,1.60
2015,01,19,06,24,1.60
2015,01,19,06,25,1.50
2015,01,19,06,26,1.50
2015,01,19,06,27,1.50
2015,01,19,06,28,1.50
2015,01,19,06,29,1.40
2015,01,19,06,30,1.50
2015,01,19,06,31,1.40
2015,01,19,06,32,1.40
2015,01,19,06,33,1.40
2015,01,19,06,34,1.40
2015,01,19,06,35,1.40
2015,01,19,06,36,1.40
2015,01,19,06,37,1.40
2015,01,19,06,38,1.40
2015,01,19,06,39,1.40
2015,01,19,06,40,1.30
2015,01,19,06,41,1.30
2015,01,19,06,42,1.30
2015,01,19,06,43,1.30
2015,01,19,06,44,1.30
2015,01,19,06,45,1.20
2015,01,19,06,46,1.20
2015,01,19,06,47,1.20
2015,01,19,06,48,1.20
2015,01,19,06,49,1.20
2015,01,19,06,50,1.10
2015,01,19,06,51,1.10
2015,01,19,06,52,1.20
2015,01,19,06,53,1.20
2015,01,19,06,54,1.20
2015,01,19,06,55,1.20
2015,01,19,06,56,1.20
2015,01,19,06,57,1.10
2015,01,19,06,58,1.10
2015,01,19,06,59,1.10
2015,01,19,07,00,1.10
2015,01,19,07,01,1.10
2015,01,19,07,02,1.10
2015,01,19,07,03,1.10
2015,01,19,07,04,1.10
2015,01,19,07,05,1.10
2015,01,19,07,06,1.00
2015,01,19,07,07,1.10
2015,01,19,07,08,1.10
2015,01,19,07,09,1.10
2015,01,19,07,10,1.10
2015,01,19,07,11,1.10
2015,01,19,07,12,1.00
2015,01,19,07,13,1.00
2015,01,19,07,14,1.00
2015,01,19,07,15,1.00
2015,01,19,07,16,0.90
2015,01,19,07,17,0.90
2015,01,19,07,18,0.90
2015,01,19,07,19,0.90
2015,01,19,07,20,0.90
2015,01,19,07,21,0.90
2015,01,19,07,22,0.90
2015,01,19,07,23,0.90
2015,01,19,07,24,0.90
2015,01,19,07,25,0.90
2015,01,19,07,26,0.90
2015,01,19,07,27,0.90
2015,01,19,07,28,0.90
2015,01,19,07,29,0.90
2015,01,19,07,30,0.90
2015,01,19,07,31,0.90
2015,01,19,07,32,0.90
2015,01,19,07,33,0.90
2015,01,19,07,34,0.80
2015,01,19,07,35,0.80
2015,01,19,07,36,0.80
2015,01,19,07,37,0.80
2015,01,19,07,38,0.80
2015,01,19,07,39,0.80
2015,01,19,07,40,0.80
2015,01,19,07,41,0.80
2015,01,19,07,42,0.80
2015,01,19,07,43,0.80
2015,01,19,07,44,0.80
2015,01,19,07,45,0.80
2015,01,19,07,46,0.80
2015,01,19,07,47,0.80
2015,01,19,07,48,0.80
2015,01,19,07,49,0.80
2015,01,19,07,50,0.80
2015,01,19,07,51,0.80
2015,01,19,07,52,0.70
2015,01,19,07,53,0.70
2015,01,19,07,54,0.70
2015,01,19,07,55,0.70
2015,01,19,07,56,0.70
2015,01,19,07,57,0.70
2015,01,19,07,58,0.70
2015,01,19,07,59,0.70
2015,01,19,08,00,0.70
2015,01,19,08,01,0.70
2015,01,19,08,02,0.70
2015,01,19,08,03,0.70
2015,01,19,08,04,0.70
2015,01,19,08,05,0.70
2015,01,19,08,06,0.70
2015,01,19,08,07,0.70
2015,01,19,08,08,0.70
2015,01,19,08,09,0.70
2015,01,19,08,10,0.70
2015,01,19,08,11,0.80
2015,01,19,08,12,0.80
2015,01,19,08,13,0.80
2015,01,19,08,14,0.80
2015,01,19,08,15,0.80
2015,01,19,08,16,0.80
2015,01,19,08,17,0.80
2015,01,19,08,18,0.80
2015,01,19,08,19,0.90
2015,01,19,08,20,0.90
2015,01,19,08,21,1.00
2015,01,19,08,22,1.00
2015,01,19,08,23,1.10
2015,01,19,08,24,1.20
2015,01,19,08,25,1.30
2015,01,19,08,26,1.30
2015,01,19,08,27,1.30
2015,01,19,08,28,1.40
2015,01,19,08,29,1.40
2015,01,19,08,30,1.40
2015,01,19,08,31,1.50
2015,01,19,08,32,1.50
2015,01,19,08,33,1.40
2015,01,19,08,34,1.40
2015,01,19,08,35,1.40
2015,01,19,08,36,1.40
2015,01,19,08,37,1.40
2015,01,19,08,38,1.40
2015,01,19,08,39,1.40
2015,01,19,08,40,1.40
2015,01,19,08,41,1.40
2015,01,19,08,42,1.40
2015,01,19,08,43,1.40
2015,01,19,08,44,1.40
2015,01,19,08,45,1.40
2015,01,19,08,46,1.40
2015,01,19,08,47,1.40
2015,01,19,08,48,1.40
2015,01,19,08,49,1.40
2015,01,19,08,50,1.40
2015,01,19,08,51,1.50
2015,01,19,08,52,1.50
2015,01,19,08,53,1.50
2015,01,19,08,54,1.60
2015,01,19,08,55,1.60
2015,01,19,08,56,1.60
2015,01,19,08,57,1.70
2015,01,19,08,58,1.70
2015,01,19,08,59,1.70
2015,01,19,09,00,1.70
2015,01,19,09,01,1.70
2015,01,19,09,02,1.70
2015,01,19,09,03,1.70
2015,01,19,09,04,1.80
2015,01,19,09,05,1.80
2015,01,19,09,06,1.80
2015,01,19,09,07,1.80
2015,01,19,09,08,1.80
2015,01,19,09,09,1.90
2015,01,19,09,10,2.00
2015,01,19,09,11,2.00
2015,01,19,09,12,2.10
2015,01,19,09,13,2.10
2015,01,19,09,14,2.10
2015,01,19,09,15,2.10
2015,01,19,09,16,2.10
2015,01,19,09,17,2.10
2015,01,19,09,18,2.20
2015,01,19,09,19,2.20
2015,01,19,09,20,2.20
2015,01,19,09,21,2.20
2015,01,19,09,22,2.20
2015,01,19,09,23,2.20
2015,01,19,09,24,2.20
2015,01,19,09,25,2.20
2015,01,19,09,26,2.20
2015,01,19,09,27,2.30
2015,01,19,09,28,2.30
2015,01,19,09,29,2.30
2015,01,19,09,30,2.30
2015,01,19,09,31,2.30
2015,01,19,09,32,2.30
2015,01,19,09,33,2.30
2015,01,19,09,34,2.30
2015,01,19,09,35,2.30
2015,01,19,09,36,2.40
2015,01,19,09,37,2.40
2015,01,19,09,38,2.40
2015,01,19,09,39,2.40
2015,01,19,09,40,2.40
2015,01,19,09,41,2.40
2015,01,19,09,42,2.40
2015,01,19,09,43,2.40
2015,01,19,09,44,2.40
2015,01,19,09,45,2.50
2015,01,19,09,46,2.50
2015,01,19,09,47,2.50
2015,01,19,09,48,2.50
2015,01,19,09,49,2.50
2015,01,19,09,50,2.50
2015,01,19,09,51,2.50
2015,01,19,09,52,2.60
2015,01,19,09,53,2.60
2015,01,19,09,54,2.60
2015,01,19,09,55,2.60
2015,01,19,09,56,2.60
2015,01,19,09,57,2.60
2015,01,19,09,58,2.60
2015,01,19,09,59,2.60
2015,01,19,10,00,2.60
2015,01,19,10,01,2.60
2015,01,19,10,02,2.60
2015,01,19,10,03,2.60
2015,01,19,10,04,2.60
2015,01,19,10,05,2.60
2015,01,19,10,06,2.60
2015,01,19,10,07,2.60
2015,01,19,10,08,2.60
2015,01,19,10,09,2.60
2015,01,19,10,10,2.60
2015,01,19,10,11,2.70
2015,01,19,10,12,2.70
2015,01,19,10,13,2.80
2015,01,19,10,14,2.80
2015,01,19,10,15,2.90
2015,01,19,10,16,3.00
2015,01,19,10,17,3.00
2015,01,19,10,18,3.00
2015,01,19,10,19,3.10
2015,01,19,10,20,3.10
2015,01,19,10,21,3.10
2015,01,19,10,22,3.10
2015,01,19,10,23,3.20
2015,01,19,10,24,3.20
2015,01,19,10,25,3.20
2015,01,19,10,26,3.30
2015,01,19,10,27,3.30
2015,01,19,10,28,3.30
2015,01,19,10,29,3.40
2015,01,19,10,30,3.50
2015,01,19,10,31,3.50
2015,01,19,10,32,3.60
2015,01,19,10,33,3.70
2015,01,19,10,34,3.70
2015,01,19,10,35,3.80
2015,01,19,10,36,3.90
2015,01,19,10,37,4.00
2015,01,19,10,38,4.00
2015,01,19,10,39,4.10
2015,01,19,10,40,4.20
2015,01,19,10,41,4.30
2015,01,19,10,42,4.30
2015,01,19,10,43,4.40
2015,01,19,10,44,4.50
2015,01,19,10,45,4.50
2015,01,19,10,46,4.60
2015,01,19,10,47,4.70
2015,01,19,10,48,4.70
2015,01,19,10,49,4.80
2015,01,19,10,50,4.90
2015,01,19,10,51,4.90
2015,01,19,10,52,5.00
2015,01,19,10,53,5.10
2015,01,19,10,54,5.10
2015,01,19,10,55,5.20
2015,01,19,10,56,5.30
2015,01,19,10,57,5.40
2015,01,19,10,58,5.50
2015,01,19,10,59,5.50
2015,01,19,11,00,5.60
2015,01,19,11,01,5.60
2015,01,19,11,02,5.70
2015,01,19,11,03,5.70
2015,01,19,11,04,5.70
2015,01,19,11,05,5.70
2015,01,19,11,06,5.70
2015,01,19,11,07,5.80
2015,01,19,11,08,5.80
2015,01,19,11,09,5.80
2015,01,19,11,10,5.90
2015,01,19,11,11,5.90
2015,01,19,11,12,6.00
2015,01,19,11,13,6.00
2015,01,19,11,14,6.10
2015,01,19,11,15,6.10
2015,01,19,11,16,6.20
2015,01,19,11,17,6.20
2015,01,19,11,18,6.30
2015,01,19,11,19,6.30
2015,01,19,11,20,6.40
2015,01,19,11,21,6.40
2015,01,19,11,22,6.50
2015,01,19,11,23,6.50
2015,01,19,11,24,6.60
2015,01,19,11,25,6.60
2015,01,19,11,26,6.60
2015,01,19,11,27,6.70
2015,01,19,11,28,6.70
2015,01,19,11,29,6.70
2015,01,19,11,30,6.80
2015,01,19,11,31,6.80
2015,01,19,11,32,6.80
2015,01,19,11,33,6.80
2015,01,19,11,34,6.80
2015,01,19,11,35,6.80
2015,01,19,11,36,6.80
2015,01,19,11,37,7.00
2015,01,19,11,38,7.10
2015,01,19,11,39,7.20
2015,01,19,11,40,7.20
2015,01,19,11,41,7.20
2015,01,19,11,42,7.30
2015,01,19,11,43,7.30
2015,01,19,11,44,7.30
2015,01,19,11,45,7.30
2015,01,19,11,46,7.40
2015,01,19,11,47,7.40
2015,01,19,11,48,7.40
2015,01,19,11,49,7.50
2015,01,19,11,50,7.50
2015,01,19,11,51,7.60
2015,01,19,11,52,7.60
2015,01,19,11,53,7.70
2015,01,19,11,54,7.70
2015,01,19,11,55,7.80
2015,01,19,11,56,7.80
2015,01,19,11,57,7.90
2015,01,19,11,58,7.90
2015,01,19,11,59,8.00
2015,01,19,12,00,8.10
2015,01,19,12,01,8.10
2015,01,19,12,02,8.10
2015,01,19,12,03,8.10
2015,01,19,12,04,8.10
2015,01,19,12,05,8.10
2015,01,19,12,06,8.20
2015,01,19,12,07,8.20
2015,01,19,12,08,8.20
2015,01,19,12,09,8.20
2015,01,19,12,10,8.30
2015,01,19,12,11,8.30
2015,01,19,12,12,8.30
2015,01,19,12,13,8.30
2015,01,19,12,14,8.30
2015,01,19,12,15,8.30
2015,01,19,12,16,8.40
2015,01,19,12,17,8.40
2015,01,19,12,18,8.40
2015,01,19,12,19,8.40
2015,01,19,12,20,8.40
2015,01,19,12,21,8.40
2015,01,19,12,22,8.30
2015,01,19,12,23,8.40
2015,01,19,12,24,8.40
2015,01,19,12,25,8.40
2015,01,19,12,26,8.40
2015,01,19,12,27,8.40
2015,01,19,12,28,8.40
2015,01,19,12,29,8.40
2015,01,19,12,30,8.40
2015,01,19,12,31,8.40
2015,01,19,12,32,8.40
2015,01,19,12,33,8.50
2015,01,19,12,34,8.40
2015,01,19,12,35,8.50
2015,01,19,12,36,8.40
2015,01,19,12,37,8.40
2015,01,19,12,38,8.40
2015,01,19,12,39,8.50
2015,01,19,12,40,8.50
2015,01,19,12,41,8.50
2015,01,19,12,42,8.60
2015,01,19,12,43,8.60
2015,01,19,12,44,8.70
2015,01,19,12,45,8.70
2015,01,19,12,46,8.70
2015,01,19,12,47,8.70
2015,01,19,12,48,8.80
2015,01,19,12,49,8.80
2015,01,19,12,50,8.80
2015,01,19,12,51,8.80
2015,01,19,12,52,8.80
2015,01,19,12,53,8.80
2015,01,19,12,54,8.70
2015,01,19,12,55,8.70
2015,01,19,12,56,8.70
2015,01,19,12,57,8.70
2015,01,19,12,58,8.70
2015,01,19,12,59,8.70
2015,01,19,13,00,8.70
2015,01,19,13,01,8.70
2015,01,19,13,02,8.70
2015,01,19,13,03,8.70
2015,01,19,13,04,8.70
2015,01,19,13,05,8.70
2015,01,19,13,06,8.70
2015,01,19,13,07,8.70
2015,01,19,13,08,8.70
2015,01,19,13,09,8.70
2015,01,19,13,10,8.70
2015,01,19,13,11,8.70
2015,01,19,13,12,8.70
2015,01,19,13,13,8.70
2015,01,19,13,14,8.70
2015,01,19,13,15,8.70
2015,01,19,13,16,8.70
2015,01,19,13,17,8.80
2015,01,19,13,18,8.80
2015,01,19,13,19,8.80
2015,01,19,13,20,8.80
2015,01,19,13,21,8.80
2015,01,19,13,22,8.80
2015,01,19,13,23,8.90
2015,01,19,13,24,8.90
2015,01,19,13,25,8.90
2015,01,19,13,26,8.90
2015,01,19,13,27,8.90
2015,01,19,13,28,8.90
2015,01,19,13,29,8.90
2015,01,19,13,30,8.90
2015,01,19,13,31,8.90
2015,01,19,13,32,9.00
2015,01,19,13,33,9.00
2015,01,19,13,34,9.00
2015,01,19,13,35,9.00
2015,01,19,13,36,9.00
2015,01,19,13,37,9.10
2015,01,19,13,38,9.10
2015,01,19,13,39,9.10
2015,01,19,13,40,9.10
2015,01,19,13,41,9.10
2015,01,19,13,42,9.10
2015,01,19,13,43,9.10
2015,01,19,13,44,9.10
2015,01,19,13,45,9.10
2015,01,19,13,46,9.10
2015,01,19,13,47,9.10
2015,01,19,13,48,9.20
2015,01,19,13,49,9.20
2015,01,19,13,50,9.20
2015,01,19,13,51,9.20
2015,01,19,13,52,9.30
2015,01,19,13,53,9.30
2015,01,19,13,54,9.30
2015,01,19,13,55,9.30
2015,01,19,13,56,9.30
2015,01,19,13,57,9.30
2015,01,19,13,58,9.30
2015,01,19,13,59,9.30
2015,01,19,14,00,9.30
2015,01,19,14,01,9.40
2015,01,19,14,02,9.40
2015,01,19,14,03,9.40
2015,01,19,14,04,9.40
2015,01,19,14,05,9.40
2015,01,19,14,06,9.40
2015,01,19,14,07,9.40
2015,01,19,14,08,9.40
2015,01,19,14,09,9.40
2015,01,19,14,10,9.40
2015,01,19,14,11,9.40
2015,01,19,14,12,9.40
2015,01,19,14,13,9.40
2015,01,19,14,14,9.50
2015,01,19,14,15,9.50
2015,01,19,14,16,9.50
2015,01,19,14,17,9.50
2015,01,19,14,18,9.60
2015,01,19,14,19,9.60
2015,01,19,14,20,9.60
2015,01,19,14,21,9.60
2015,01,19,14,22,9.60
2015,01,19,14,23,9.70
2015,01,19,14,24,9.70
2015,01,19,14,25,9.70
2015,01,19,14,26,9.70
2015,01,19,14,27,9.60
2015,01,19,14,28,9.60
2015,01,19,14,29,9.50
2015,01,19,14,30,9.50
2015,01,19,14,31,9.40
2015,01,19,14,32,9.40
2015,01,19,14,33,9.40
2015,01,19,14,34,9.30
2015,01,19,14,35,9.30
2015,01,19,14,36,9.30
2015,01,19,14,37,9.30
2015,01,19,14,38,9.30
2015,01,19,14,39,9.30
2015,01,19,14,40,9.30
2015,01,19,14,41,9.30
2015,01,19,14,42,9.30
2015,01,19,14,43,9.30
2015,01,19,14,44,9.20
2015,01,19,14,45,9.20
2015,01,19,14,46,9.20
2015,01,19,14,47,9.10
2015,01,19,14,48,9.10
2015,01,19,14,49,9.00
2015,01,19,14,50,8.90
2015,01,19,14,51,8.90
2015,01,19,14,52,8.80
2015,01,19,14,53,8.80
2015,01,19,14,54,8.70
2015,01,19,14,55,8.70
2015,01,19,14,56,8.70
2015,01,19,14,57,8.70
2015,01,19,14,58,8.70
2015,01,19,14,59,8.70
2015,01,19,15,00,8.70
2015,01,19,15,01,8.80
2015,01,19,15,02,8.80
2015,01,19,15,03,8.80
2015,01,19,15,04,8.80
2015,01,19,15,05,8.80
2015,01,19,15,06,8.90
2015,01,19,15,07,8.90
2015,01,19,15,08,8.90
2015,01,19,15,09,8.90
2015,01,19,15,10,9.00
2015,01,19,15,11,9.00
2015,01,19,15,12,9.10
2015,01,19,15,13,9.10
2015,01,19,15,14,9.10
2015,01,19,15,15,9.00
2015,01,19,15,16,9.00
2015,01,19,15,17,9.00
2015,01,19,15,18,9.00
2015,01,19,15,19,9.00
2015,01,19,15,20,9.00
2015,01,19,15,21,9.00
2015,01,19,15,22,9.10
2015,01,19,15,23,9.10
2015,01,19,15,24,9.10
2015,01,19,15,25,9.20
2015,01,19,15,26,9.20
2015,01,19,15,27,9.30
2015,01,19,15,28,9.30
2015,01,19,15,29,9.30
2015,01,19,15,30,9.40
2015,01,19,15,31,9.50
2015,01,19,15,32,9.50
2015,01,19,15,33,9.50
2015,01,19,15,34,9.60
2015,01,19,15,35,9.60
2015,01,19,15,36,9.60
2015,01,19,15,37,9.70
2015,01,19,15,38,9.70
2015,01,19,15,39,9.70
2015,01,19,15,40,9.60
2015,01,19,15,41,9.60
2015,01,19,15,42,9.60
2015,01,19,15,43,9.50
2015,01,19,15,44,9.50
2015,01,19,15,45,9.50
2015,01,19,15,46,9.50
2015,01,19,15,47,9.50
2015,01,19,15,48,9.50
2015,01,19,15,49,9.50
2015,01,19,15,50,9.50
2015,01,19,15,51,9.50
2015,01,19,15,52,9.40
2015,01,19,15,53,9.40
2015,01,19,15,54,9.30
2015,01,19,15,55,9.20
2015,01,19,15,56,9.20
2015,01,19,15,57,9.10
2015,01,19,15,58,9.00
2015,01,19,15,59,9.00
2015,01,19,16,00,8.90
2015,01,19,16,01,8.90
2015,01,19,16,02,8.80
2015,01,19,16,03,8.80
2015,01,19,16,04,8.70
2015,01,19,16,05,8.60
2015,01,19,16,06,8.60
2015,01,19,16,07,8.50
2015,01,19,16,08,8.40
2015,01,19,16,09,8.40
2015,01,19,16,10,8.40
2015,01,19,16,11,8.30
2015,01,19,16,12,8.30
2015,01,19,16,13,8.20
2015,01,19,16,14,8.20
2015,01,19,16,15,8.20
2015,01,19,16,16,8.10
2015,01,19,16,17,8.10
2015,01,19,16,18,8.10
2015,01,19,16,19,8.10
2015,01,19,16,20,8.10
2015,01,19,16,21,8.00
2015,01,19,16,22,8.00
2015,01,19,16,23,8.00
2015,01,19,16,24,7.90
2015,01,19,16,25,7.90
2015,01,19,16,26,7.90
2015,01,19,16,27,7.90
2015,01,19,16,28,7.90
2015,01,19,16,29,7.90
2015,01,19,16,30,7.90
2015,01,19,16,31,7.90
2015,01,19,16,32,7.90
2015,01,19,16,33,7.80
2015,01,19,16,34,7.80
2015,01,19,16,35,7.80
2015,01,19,16,36,7.80
2015,01,19,16,37,7.80
2015,01,19,16,38,7.80
2015,01,19,16,39,7.80
2015,01,19,16,40,7.80
2015,01,19,16,41,7.80
2015,01,19,16,42,7.70
2015,01,19,16,43,7.70
2015,01,19,16,44,7.70
2015,01,19,16,45,7.70
2015,01,19,16,46,7.70
2015,01,19,16,47,7.60
2015,01,19,16,48,7.60
2015,01,19,16,49,7.60
2015,01,19,16,50,7.60
2015,01,19,16,51,7.50
2015,01,19,16,52,7.50
2015,01,19,16,53,7.50
2015,01,19,16,54,7.40
2015,01,19,16,55,7.40
2015,01,19,16,56,7.30
2015,01,19,16,57,7.30
2015,01,19,16,58,7.20
2015,01,19,16,59,7.20
2015,01,19,17,00,7.10
2015,01,19,17,01,7.00
2015,01,19,17,02,7.00
2015,01,19,17,03,6.90
2015,01,19,17,04,6.90
2015,01,19,17,05,6.80
2015,01,19,17,06,6.80
2015,01,19,17,07,6.80
2015,01,19,17,08,6.80
2015,01,19,17,09,6.80
2015,01,19,17,10,6.70
2015,01,19,17,11,6.70
2015,01,19,17,12,6.70
2015,01,19,17,13,6.70
2015,01,19,17,14,6.60
2015,01,19,17,15,6.60
2015,01,19,17,16,6.60
2015,01,19,17,17,6.60
2015,01,19,17,18,6.50
2015,01,19,17,19,6.40
2015,01,19,17,20,6.40
2015,01,19,17,21,6.30
2015,01,19,17,22,6.30
2015,01,19,17,23,6.20
2015,01,19,17,24,6.20
2015,01,19,17,25,6.20
2015,01,19,17,26,6.10
2015,01,19,17,27,6.10
2015,01,19,17,28,6.00
2015,01,19,17,29,6.00
2015,01,19,17,30,6.00
2015,01,19,17,31,6.00
2015,01,19,17,32,5.90
2015,01,19,17,33,5.90
2015,01,19,17,34,5.90
2015,01,19,17,35,5.90
2015,01,19,17,36,5.80
2015,01,19,17,37,5.80
2015,01,19,17,38,5.70
2015,01,19,17,39,5.70
2015,01,19,17,40,5.60
2015,01,19,17,41,5.60
2015,01,19,17,42,5.60
2015,01,19,17,43,5.50
2015,01,19,17,44,5.50
2015,01,19,17,45,5.40
2015,01,19,17,46,5.40
2015,01,19,17,47,5.30
2015,01,19,17,48,5.30
2015,01,19,17,49,5.30
2015,01,19,17,50,5.30
2015,01,19,17,51,5.30
2015,01,19,17,52,5.30
2015,01,19,17,53,5.30
2015,01,19,17,54,5.30
2015,01,19,17,55,5.30
2015,01,19,17,56,5.40
2015,01,19,17,57,5.50
2015,01,19,17,58,5.60
2015,01,19,17,59,5.60
2015,01,19,18,00,5.70
2015,01,19,18,01,5.70
2015,01,19,18,02,5.70
2015,01,19,18,03,5.70
2015,01,19,18,04,5.80
2015,01,19,18,05,5.80
2015,01,19,18,06,5.80